Flag for Germany Weather past 2 weeks in Erfurt, Thuringia, Germany

54 °F

Partly cloudy.

Feels Like: 52 °F
Forecast: 38 / 51 °F
Wind: 6 mph from West

Location: Erfurt-Bindersleben

Current Time: Oct 9, 2015 at 3:50:23 AM

Latest Report: Oct 9, 2015 at 3:20 AM

Visibility: 5 mi

Pressure: 30.12 "Hg

Humidity: 94%

Dew point: 52 °F

Location of ErfurtLocation

Historic Weather in Erfurt — Graph


Erfurt temperature yesterday

Maximum temperature yesterday: 59 °F (at 1:20 PM)
Minimum temperature yesterday: 52 °F (at 7:50 AM)
Average temperature yesterday: 56 °F

Past Weeks' High & Low Weather Summary

High70 °F (Oct 3, 3:50 PM)100% (Sep 28, 6:20 AM)30.63 "Hg (Sep 28, 6:20 AM)
Low34 °F (Oct 2, 5:20 AM)41% (Oct 1, 2:20 PM)29.71 "Hg (Oct 6, 4:20 PM)
Average53 °F75%30.21 "Hg
* Reported Sep 24 2:20 AM — Oct 9 2:50 AM, Erfurt, Weather by CustomWeather, © 2015

Note: Actual official high and low records may vary slightly from our data, if they occured in-between our weather recording intervals... More about our weather records


Erfurt weather history for previous 24 hours

Time TempWeatherWind HumidityBarometerVisibility
2:50 AM
Fri, Oct 9
54 °FPassing clouds.6 mph94%30.12 "Hg5 mi
2:20 AM54 °FLight rain. Passing clouds.7 mph94%30.12 "Hg4 mi
1:50 AM54 °FLight rain. Passing clouds.6 mph94%30.12 "Hg4 mi
1:20 AM52 °FPartly cloudy.7 mph100%30.12 "Hg4 mi
12:50 AM54 °FPassing clouds.6 mph94%30.12 "HgN/A
12:20 AM54 °FPartly cloudy.6 mph94%30.15 "HgN/A
11:20 PM
Thu, Oct 8
54 °FPartly cloudy.6 mph94%30.15 "HgN/A
10:50 PM54 °FPartly cloudy.7 mph94%30.15 "HgN/A
10:20 PM54 °FPassing clouds.6 mph94%30.15 "HgN/A
9:50 PM54 °FPartly cloudy.7 mph100%30.12 "HgN/A
9:20 PM54 °FPassing clouds.5 mph100%30.12 "Hg6 mi
8:50 PM54 °FPartly cloudy.2 mph100%30.12 "Hg3 mi
8:20 PM54 °FPartly cloudy.3 mph94%30.12 "Hg4 mi
7:50 PM54 °FPassing clouds.3 mph94%30.12 "HgN/A
7:20 PM54 °FPartly sunny.5 mph94%30.12 "HgN/A
6:50 PM54 °FBroken clouds.6 mph94%30.12 "HgN/A
6:20 PM54 °FDrizzle. Partly sunny.7 mph94%30.12 "Hg5 mi
5:50 PM55 °FDrizzle. Partly sunny.8 mph88%30.12 "HgN/A
5:20 PM55 °FDrizzle. Partly sunny.9 mph88%30.12 "HgN/A
4:50 PM55 °FDrizzle. Partly sunny.10 mph88%30.12 "HgN/A
4:20 PM57 °FPartly sunny.8 mph77%30.09 "HgN/A
3:50 PM59 °FBroken clouds.9 mph72%30.09 "HgN/A
3:20 PM59 °FBroken clouds.10 mph72%30.09 "HgN/A
2:50 PM59 °FBroken clouds.10 mph72%30.09 "HgN/A
2:20 PM59 °FBroken clouds.12 mph72%30.09 "HgN/A
1:50 PM59 °FBroken clouds.13 mph72%30.09 "HgN/A
1:20 PM59 °FBroken clouds.12 mph77%30.09 "HgN/A
12:50 PM57 °FPartly sunny.12 mph77%30.09 "HgN/A
12:20 PM57 °FPartly sunny.12 mph77%30.09 "HgN/A
11:50 AM57 °FBroken clouds.9 mph82%30.09 "HgN/A
11:20 AM57 °FScattered clouds.13 mph77%30.07 "HgN/A
10:50 AM57 °FScattered clouds.13 mph82%30.07 "HgN/A
10:20 AM57 °FScattered clouds.9 mph82%30.07 "HgN/A
9:50 AM57 °FScattered clouds.9 mph82%30.07 "HgN/A
9:20 AM55 °FBroken clouds.10 mph88%30.07 "HgN/A
8:50 AM54 °FPartly sunny.8 mph94%30.07 "HgN/A
8:20 AM54 °FPassing clouds.10 mph88%30.04 "HgN/A
7:50 AM52 °FPassing clouds.10 mph94%30.04 "HgN/A
7:20 AM54 °FPassing clouds.10 mph88%30.04 "HgN/A
6:50 AM54 °FPassing clouds.10 mph88%30.04 "HgN/A
5:20 AM55 °FPassing clouds.13 mph88%30.01 "HgN/A
4:50 AM55 °FPartly cloudy.12 mph88%30.01 "HgN/A
4:20 AM55 °FPassing clouds.10 mph88%30.01 "HgN/A
3:50 AM55 °FPassing clouds.9 mph88%30.01 "HgN/A
3:20 AM55 °FPassing clouds.9 mph88%30.01 "HgN/A
Weather by CustomWeather, © 2015

See weather overviewHow to use our weather pages